Weather observations for the past three days for
Atlantic City, Atlantic City International Airport
Metric (Imperial)
Date Time (edt) Wind (kph) Vis. (km) Weather Sky Cond. Temperature (ºC) Relative Humidity Wind Chill (°C) Heat Index (°C) Pressure Precipitation (cm)
Air Dwpt 6 hour altimeter (cm) sea level (mb) 1 hr 3 hr 6 hr
Max. Min.
01 19:54 SW 13 16.09 Partly Cloudy SCT020 28.9 23.9 74% 33 76.05 1015.0
01 18:54 SW 15 16.09 Fair CLR 31.1 23.9 66% 37 76.05 0.0
01 17:54 SW 15 16.09 Fair CLR 31.1 23.9 66% 37 76.05 0.0
01 15:54 W 19 16.09 Fair CLR 31.7 25 68% 39 76.07 0.0
01 13:54 W 9 16.09 Fair CLR 29.4 25 77% 35 76.12 0.0
01 12:54 NW 17 16.09 A Few Clouds FEW030 30.6 25 72% 37 76.17 0.0
01 11:54 W 17 G 28 16.09 Clear SKC 30 24 70% 35 76.2 0.0
01 10:54 W 17 16.09 Fair CLR 29.4 24.4 75% 35 76.2 0.0
01 09:54 W 15 16.09 Fair CLR 27.8 24.4 82% 32 76.23 1017.3
01 08:54 W 13 16.09 Partly Cloudy SCT010 26.1 25 94% 28 76.28 0.0
01 07:54 SW 9 16.09 Fair CLR 23.9 23.9 100% 22 76.25 1017.7
31 21:54 SE 7 16.09 Partly Cloudy SCT011 21.7 21.7 100% 76.4 1019.7
31 19:54 S 9 16.09 Partly Cloudy SCT030 22.8 21.1 90% 76.38 1019.4
31 18:54 E 7 16.09 Partly Cloudy SCT030 22.8 21.1 90% 76.43 1020.1
31 16:54 E 9 16.09 Partly Cloudy SCT024 24.4 21.1 82% 25 76.43 0.0
31 15:54 E 11 16.09 Partly Cloudy SCT024 24.4 21.7 85% 25 76.48 0.0
31 14:54 SE 17 16.09 Partly Cloudy SCT021 25.6 21.7 79% 27 76.48 0.0
31 11:54 NE 9 16.09 Partly Cloudy SCT014 25.6 22.2 82% 27 76.5 0.0
31 10:54 E 13 16.09 Partly Cloudy SCT020 24.4 22.2 88% 25 76.5 0.0
31 09:54 NE 7 16.09 Fair CLR 22.2 21.7 97% 76.53 1021.4
31 08:54 NE 7 16.09 Mostly Cloudy BKN050 21.1 21.1 100% 76.53 1021.4
31 07:54 Calm 11.27 Mostly Cloudy BKN045 20 20 100% 76.5 1021.1
31 06:54 Calm 0.80 Fog VV002 20 20 100% 76.45 0.0
31 05:54 Calm 16.09 Mostly Cloudy BKN045 21.1 21.1 100% 76.4 1019.7
31 04:54 Calm 16.09 Mostly Cloudy BKN045 21.1 21.1 100% 76.38 0.0
31 00:54 SW 13 16.09 Fair CLR 22.8 22.8 100% 76.43 1020.1
30 21:54 SW 13 16.09 Fair CLR 23.9 22.8 94% 23 76.48 1020.7
30 20:54 SW 15 16.09 Fair CLR 23.9 22.8 94% 23 76.48 1020.7
30 19:54 SW 15 16.09 Fair CLR 25 22.8 88% 26 76.43 0.0
30 17:54 S 19 16.09 Fair CLR 26.1 22.2 79% 28 76.43 0.0
30 15:54 SW 20 16.09 Partly Cloudy SCT040 28.9 21.7 65% 32 76.48 0.0
30 14:54 SW 19 16.09 Fair CLR 28.9 20.6 61% 31 76.5 0.0
30 13:54 S 15 16.09 Fair CLR 27.8 21.7 69% 30 76.63 0.0
30 12:54 S 19 16.09 Partly Cloudy SCT030 27.8 21.1 67% 30 76.63 0.0
30 11:54 SW 19 16.09 Partly Cloudy SCT030 27.2 20.6 67% 29 76.63 1022.8
30 10:54 SW 17 16.09 Fair CLR 26.1 20.6 72% 28 76.68 1023.5
30 09:54 SW 15 16.09 A Few Clouds FEW035 25 20 74% 26 76.71 1023.8
30 08:54 SW 11 16.09 A Few Clouds FEW035 21.7 20.6 94% 76.76 1024.5
Date Time (edt) Wind (kph) Vis. (km) Weather Sky Cond. Air Dwpt Max. Min. Relative Humidity Wind Chill (°C) Heat Index (°C) altimeter (cm) sea level (mb) 1 hr 3 hr 6 hr
6 hour
Temperature (ºC) Pressure Precipitation (cm)